BEIDOU-3 M16 (C35)

Last updated on Sat Sep 12 2026 00:03:29 GMT+0000 (Coordinated Universal Time)

1 43647U 18078A 26253.93131642 -.00000045 00000+0 00000+0 0 9993 2 43647 54.0096 296.9723 0006056 32.3821 327.7243 1.86232315 53753
UTC large
Height (km)
Speed (km/s)
/
Latitude / Longitude
Inclination (degrees)
Orbital Period (minutes)
Azimuth
Elevation
Range (km)
Doppler Factor

Next 0 passes for location: London (51.5072 / 0.1276)

No passes found over London.
BEIDOU-3 M16 (C35)